Location: Apalco
(33.3585°N, 93.4602°W)
Time: 19:17:41
(UTC+00:00)

Nauka - Visible Passes

Search period start: 25 September 2021 00:00
Search period end: 05 October 2021 00:00
Orbit: 419 x 423 km, 51.6° (Epoch: 24 September)

Date Brightness Start Highest point End Pass type
(mag) Time Alt. Az. Time Alt. Az. Time Alt. Az.
03 Oct ? 01:26:57 10° NNW 01:28:27 17° N 01:28:27 17° N visible
04 Oct ? 00:40:44 10° N 00:42:16 13° NNE 00:43:32 11° NE visible
04 Oct ? 02:16:07 10° NW 02:16:33 13° NW 02:16:33 13° NW visible
